• In Deutschland
  • Länderverzeichnis
  • Für 7 Tage
  • Wassertemperatur
  • Satellitenkarten
  • Wetterkarte
  • Widgets
  • user-avatar
    Anmelden

    Stündliche Wetter Quibdó

    Heute, 23 Juli, Montag

    Zeit Temperatur Niederschläge Wind Luftdruck Luftfeuchtigkeit
    00:00 +23°C° 1,3 mm 0 m/S 751 mmHg 95%
    01:00 +23°C° 1,3 mm 0 m/S 751 mmHg 95%
    02:00 +23°C° 1,1 mm 0 m/S 751 mmHg 94%
    03:00 +23°C° 1,1 mm 0 m/S 750 mmHg 94%
    04:00 +23°C° 1,1 mm 0 m/S 750 mmHg 94%
    05:00 +23°C° 0,2 mm 0 m/S 750 mmHg 93%
    06:00 +23°C° 0,2 mm 0 m/S 751 mmHg 92%
    07:00 +24°C° 0,2 mm 0 m/S 751 mmHg 92%
    08:00 +27°C° 0 mm 1 m/S 751 mmHg 87%
    09:00 +29°C° 0 mm 1 m/S 751 mmHg 82%
    10:00 +30°C° 0 mm 1 m/S 751 mmHg 76%
    11:00 +31°C° 0,2 mm 1 m/S 750 mmHg 74%
    12:00 +32°C° 0,2 mm 1 m/S 750 mmHg 72%
    13:00 +34°C° 0,2 mm 2 m/S 749 mmHg 69%
    14:00 +32°C° 1 mm 2 m/S 749 mmHg 75%
    15:00 +31°C° 1 mm 2 m/S 749 mmHg 80%
    16:00 +30°C° 1 mm 2 m/S 748 mmHg 86%
    17:00 +28°C° 1,2 mm 1 m/S 749 mmHg 89%
    18:00 +27°C° 1,2 mm 1 m/S 749 mmHg 92%
    19:00 +26°C° 1,2 mm 1 m/S 750 mmHg 96%
    20:00 +26°C° 0,9 mm 1 m/S 751 mmHg 95%
    21:00 +24°C° 0,9 mm 0 m/S 751 mmHg 95%
    22:00 +24°C° 0,9 mm 0 m/S 752 mmHg 95%
    23:00 +24°C° 0,4 mm 0 m/S 752 mmHg 95%

    Morgen, 24 Juli, Dienstag

    Zeit Temperatur Niederschläge Wind Luftdruck Luftfeuchtigkeit
    00:00 +23°C° 0,4 mm 0 m/S 752 mmHg 94%
    01:00 +23°C° 0,4 mm 0 m/S 751 mmHg 94%
    02:00 +23°C° 0 mm 0 m/S 751 mmHg 94%
    03:00 +23°C° 0 mm 0 m/S 751 mmHg 94%
    04:00 +23°C° 0 mm 0 m/S 751 mmHg 94%
    05:00 +23°C° 0 mm 0 m/S 751 mmHg 93%
    06:00 +24°C° 0 mm 0 m/S 751 mmHg 91%
    07:00 +24°C° 0 mm 0 m/S 752 mmHg 90%
    08:00 +26°C° 0,1 mm 0 m/S 752 mmHg 84%
    09:00 +29°C° 0,1 mm 1 m/S 752 mmHg 78%
    10:00 +31°C° 0,1 mm 1 m/S 752 mmHg 72%
    11:00 +31°C° 0,7 mm 1 m/S 752 mmHg 73%
    12:00 +32°C° 0,7 mm 1 m/S 751 mmHg 73%
    13:00 +32°C° 0,7 mm 1 m/S 751 mmHg 73%
    14:00 +31°C° 1,2 mm 1 m/S 750 mmHg 76%
    15:00 +31°C° 1,2 mm 1 m/S 750 mmHg 79%
    16:00 +30°C° 1,2 mm 1 m/S 749 mmHg 82%
    17:00 +29°C° 0,9 mm 1 m/S 750 mmHg 86%
    18:00 +28°C° 0,9 mm 1 m/S 750 mmHg 91%
    19:00 +25°C° 0,9 mm 0 m/S 751 mmHg 96%
    20:00 +24°C° 0,3 mm 0 m/S 751 mmHg 96%
    21:00 +24°C° 0,3 mm 0 m/S 752 mmHg 95%
    22:00 +24°C° 0,3 mm 0 m/S 753 mmHg 95%
    23:00 +24°C° 0,2 mm 0 m/S 752 mmHg 95%

    übermorgen, 25 Juli, Mittwoch

    Zeit Temperatur Niederschläge Wind Luftdruck Luftfeuchtigkeit
    00:00 +24°C° 0,2 mm 0 m/S 752 mmHg 95%
    01:00 +24°C° 0,2 mm 0 m/S 752 mmHg 95%
    02:00 +24°C° 0,1 mm 0 m/S 751 mmHg 94%
    03:00 +24°C° 0,1 mm 0 m/S 751 mmHg 94%
    04:00 +23°C° 0,1 mm 0 m/S 751 mmHg 94%
    05:00 +24°C° 0 mm 0 m/S 751 mmHg 93%
    06:00 +24°C° 0 mm 0 m/S 751 mmHg 92%
    07:00 +24°C° 0 mm 0 m/S 751 mmHg 91%
    08:00 +25°C° 0,1 mm 0 m/S 752 mmHg 87%
    09:00 +29°C° 0,1 mm 1 m/S 752 mmHg 82%
    10:00 +30°C° 0,1 mm 1 m/S 752 mmHg 77%
    11:00 +31°C° 0,4 mm 1 m/S 751 mmHg 76%
    12:00 +31°C° 0,4 mm 1 m/S 751 mmHg 74%
    13:00 +32°C° 0,4 mm 1 m/S 750 mmHg 72%
    14:00 +31°C° 1 mm 1 m/S 750 mmHg 77%
    15:00 +30°C° 1 mm 1 m/S 749 mmHg 81%
    16:00 +29°C° 1 mm 1 m/S 749 mmHg 86%
    17:00 +28°C° 1,6 mm 1 m/S 749 mmHg 89%
    18:00 +27°C° 1,6 mm 1 m/S 750 mmHg 92%
    19:00 +26°C° 1,6 mm 1 m/S 750 mmHg 95%
    20:00 +26°C° 2,8 mm 1 m/S 751 mmHg 95%
    21:00 +24°C° 2,8 mm 0 m/S 752 mmHg 95%
    22:00 +24°C° 2,8 mm 0 m/S 752 mmHg 95%
    23:00 +24°C° 0,7 mm 0 m/S 752 mmHg 95%

    26 Juli, Donnerstag

    Zeit Temperatur Niederschläge Wind Luftdruck Luftfeuchtigkeit
    00:00 +23°C° 0,7 mm 0 m/S 752 mmHg 95%
    01:00 +23°C° 0,7 mm 0 m/S 752 mmHg 95%
    02:00 +23°C° 0,8 mm 0 m/S 752 mmHg 95%
    03:00 +23°C° 0,8 mm 0 m/S 751 mmHg 95%
    04:00 +23°C° 0,8 mm 0 m/S 751 mmHg 95%
    05:00 +23°C° 0,5 mm 0 m/S 751 mmHg 94%
    06:00 +23°C° 0,5 mm 0 m/S 752 mmHg 94%
    07:00 +24°C° 0,5 mm 0 m/S 752 mmHg 93%
    08:00 +25°C° 0,1 mm 0 m/S 752 mmHg 87%
    09:00 +29°C° 0,1 mm 1 m/S 752 mmHg 81%
    10:00 +31°C° 0,1 mm 1 m/S 752 mmHg 75%
    11:00 +31°C° 0,5 mm 1 m/S 751 mmHg 75%
    12:00 +32°C° 0,5 mm 1 m/S 750 mmHg 74%
    13:00 +32°C° 0,5 mm 2 m/S 750 mmHg 74%
    14:00 +31°C° 1,8 mm 2 m/S 749 mmHg 78%
    15:00 +30°C° 1,8 mm 1 m/S 749 mmHg 82%
    16:00 +29°C° 1,8 mm 1 m/S 749 mmHg 86%
    17:00 +28°C° 3,7 mm 1 m/S 749 mmHg 90%
    18:00 +27°C° 3,7 mm 1 m/S 750 mmHg 93%
    19:00 +26°C° 3,7 mm 1 m/S 750 mmHg 96%
    20:00 +24°C° 3,7 mm 0 m/S 751 mmHg 95%
    21:00 +24°C° 3,7 mm 0 m/S 752 mmHg 95%
    22:00 +24°C° 3,7 mm 0 m/S 752 mmHg 95%
    23:00 +24°C° 1,6 mm 0 m/S 752 mmHg 95%

    27 Juli, Freitag

    Zeit Temperatur Niederschläge Wind Luftdruck Luftfeuchtigkeit
    00:00 +23°C° 1,6 mm 0 m/S 752 mmHg 96%
    01:00 +23°C° 1,6 mm 0 m/S 751 mmHg 96%
    02:00 +23°C° 0,3 mm 0 m/S 751 mmHg 96%
    03:00 +23°C° 0,3 mm 0 m/S 751 mmHg 95%
    04:00 +23°C° 0,3 mm 0 m/S 751 mmHg 95%
    05:00 +23°C° 0,1 mm 0 m/S 751 mmHg 94%
    06:00 +23°C° 0,1 mm 0 m/S 752 mmHg 93%
    07:00 +23°C° 0,1 mm 0 m/S 752 mmHg 92%
    08:00 +25°C° 0,2 mm 0 m/S 752 mmHg 87%
    09:00 +29°C° 0,2 mm 1 m/S 752 mmHg 81%
    10:00 +31°C° 0,2 mm 1 m/S 752 mmHg 76%
    11:00 +31°C° 0,7 mm 1 m/S 751 mmHg 77%
    12:00 +31°C° 0,7 mm 1 m/S 750 mmHg 77%
    13:00 +31°C° 0,7 mm 2 m/S 750 mmHg 78%
    14:00 +30°C° 2 mm 2 m/S 749 mmHg 82%
    15:00 +29°C° 2 mm 1 m/S 749 mmHg 86%
    16:00 +28°C° 2 mm 1 m/S 749 mmHg 91%
    17:00 +28°C° 2,7 mm 1 m/S 749 mmHg 92%
    18:00 +27°C° 2,7 mm 1 m/S 750 mmHg 94%
    19:00 +26°C° 2,7 mm 1 m/S 751 mmHg 96%
    20:00 +26°C° 1,8 mm 1 m/S 751 mmHg 96%
    21:00 +26°C° 1,8 mm 1 m/S 752 mmHg 95%
    22:00 +23°C° 1,8 mm 0 m/S 753 mmHg 95%
    23:00 +23°C° 0,5 mm 0 m/S 752 mmHg 95%

    28 Juli, Samstag

    Zeit Temperatur Niederschläge Wind Luftdruck Luftfeuchtigkeit
    00:00 +23°C° 0,5 mm 0 m/S 752 mmHg 94%
    01:00 +23°C° 0,5 mm 0 m/S 752 mmHg 94%
    02:00 +23°C° 1 mm 0 m/S 751 mmHg 94%
    03:00 +23°C° 1 mm 0 m/S 751 mmHg 94%
    04:00 +22°C° 1 mm 0 m/S 751 mmHg 94%
    05:00 +23°C° 0,9 mm 0 m/S 751 mmHg 93%
    06:00 +23°C° 0,9 mm 0 m/S 752 mmHg 93%
    07:00 +23°C° 0,9 mm 0 m/S 752 mmHg 92%
    08:00 +24°C° 0,1 mm 0 m/S 752 mmHg 87%
    09:00 +28°C° 0,1 mm 1 m/S 752 mmHg 82%
    10:00 +29°C° 0,1 mm 1 m/S 752 mmHg 78%
    11:00 +30°C° 0,3 mm 1 m/S 752 mmHg 76%
    12:00 +31°C° 0,3 mm 1 m/S 751 mmHg 74%
    13:00 +32°C° 0,3 mm 1 m/S 750 mmHg 72%
    14:00 +31°C° 1,1 mm 1 m/S 750 mmHg 77%
    15:00 +30°C° 1,1 mm 1 m/S 749 mmHg 82%
    16:00 +29°C° 1,1 mm 1 m/S 749 mmHg 87%
    17:00 +28°C° 1,3 mm 1 m/S 750 mmHg 90%
    18:00 +27°C° 1,3 mm 1 m/S 750 mmHg 93%
    19:00 +24°C° 1,3 mm 0 m/S 751 mmHg 96%
    20:00 +24°C° 0,6 mm 0 m/S 751 mmHg 96%
    21:00 +23°C° 0,6 mm 0 m/S 752 mmHg 96%
    22:00 +23°C° 0,6 mm 0 m/S 752 mmHg 95%
    23:00 +23°C° 0 mm 0 m/S 752 mmHg 95%
    Mehr zeigen